• In Belarus
  • List of Countries
  • For 7 days
  • Water Temperature
  • Satellite Maps
  • Weather Map
  • Weather Widgets
  • user-avatar
    Login

    Hourly Weather Stavropol'

    Today, 19 August, Sunday

    Time Temperature Precipitation Wind Pressure Humidity
    00:00 +22°C° 0 mm 5 mps 725 mmHg 48%
    01:00 +22°C° 0 mm 5 mps 725 mmHg 48%
    02:00 +21°C° 0 mm 5 mps 726 mmHg 49%
    03:00 +21°C° 0 mm 5 mps 726 mmHg 49%
    04:00 +20°C° 0 mm 5 mps 726 mmHg 48%
    05:00 +19°C° 0 mm 4 mps 726 mmHg 48%
    06:00 +19°C° 0 mm 4 mps 726 mmHg 47%
    07:00 +20°C° 0 mm 5 mps 727 mmHg 44%
    08:00 +21°C° 0 mm 6 mps 727 mmHg 41%
    09:00 +23°C° 0 mm 6 mps 727 mmHg 39%
    10:00 +24°C° 0 mm 6 mps 727 mmHg 37%
    11:00 +26°C° 0 mm 6 mps 727 mmHg 36%
    12:00 +27°C° 0 mm 6 mps 727 mmHg 34%
    13:00 +27°C° 0 mm 6 mps 727 mmHg 33%
    14:00 +28°C° 0 mm 6 mps 727 mmHg 32%
    15:00 +28°C° 0 mm 6 mps 727 mmHg 31%
    16:00 +27°C° 0 mm 6 mps 727 mmHg 32%
    17:00 +26°C° 0 mm 6 mps 727 mmHg 32%
    18:00 +26°C° 0 mm 5 mps 727 mmHg 33%
    19:00 +23°C° 0 mm 5 mps 727 mmHg 34%
    20:00 +22°C° 0 mm 5 mps 727 mmHg 35%
    21:00 +20°C° 0 mm 5 mps 728 mmHg 35%
    22:00 +19°C° 0 mm 5 mps 728 mmHg 35%
    23:00 +19°C° 0 mm 5 mps 727 mmHg 34%

    Tomorrow, 20 August, Monday

    Time Temperature Precipitation Wind Pressure Humidity
    00:00 +17°C° 0 mm 5 mps 727 mmHg 34%
    01:00 +17°C° 0 mm 5 mps 727 mmHg 35%
    02:00 +16°C° 0 mm 5 mps 727 mmHg 37%
    03:00 +16°C° 0 mm 5 mps 727 mmHg 38%
    04:00 +16°C° 0 mm 5 mps 727 mmHg 39%
    05:00 +15°C° 0 mm 5 mps 727 mmHg 41%
    06:00 +15°C° 0 mm 5 mps 727 mmHg 43%
    07:00 +17°C° 0 mm 6 mps 727 mmHg 41%
    08:00 +20°C° 0 mm 7 mps 728 mmHg 39%
    09:00 +22°C° 0 mm 8 mps 728 mmHg 36%
    10:00 +23°C° 0 mm 8 mps 728 mmHg 35%
    11:00 +24°C° 0 mm 8 mps 727 mmHg 33%
    12:00 +27°C° 0 mm 8 mps 727 mmHg 31%
    13:00 +27°C° 0 mm 8 mps 727 mmHg 30%
    14:00 +28°C° 0 mm 8 mps 727 mmHg 29%
    15:00 +28°C° 0 mm 8 mps 726 mmHg 28%
    16:00 +27°C° 0 mm 7 mps 726 mmHg 29%
    17:00 +27°C° 0 mm 6 mps 726 mmHg 31%
    18:00 +26°C° 0 mm 5 mps 726 mmHg 33%
    19:00 +23°C° 0 mm 5 mps 726 mmHg 35%
    20:00 +22°C° 0 mm 5 mps 726 mmHg 37%
    21:00 +21°C° 0 mm 5 mps 727 mmHg 39%
    22:00 +20°C° 0 mm 5 mps 727 mmHg 45%
    23:00 +20°C° 0 mm 6 mps 726 mmHg 50%

    Day after tomorrow, 21 August, Tuesday

    Time Temperature Precipitation Wind Pressure Humidity
    00:00 +20°C° 0 mm 6 mps 726 mmHg 56%
    01:00 +19°C° 0 mm 6 mps 726 mmHg 60%
    02:00 +17°C° 0 mm 5 mps 726 mmHg 65%
    03:00 +17°C° 0 mm 5 mps 726 mmHg 69%
    04:00 +16°C° 0 mm 5 mps 726 mmHg 71%
    05:00 +16°C° 0 mm 5 mps 726 mmHg 74%
    06:00 +16°C° 0 mm 5 mps 726 mmHg 76%
    07:00 +19°C° 0 mm 5 mps 727 mmHg 70%
    08:00 +21°C° 0 mm 6 mps 727 mmHg 64%
    09:00 +22°C° 0 mm 6 mps 727 mmHg 57%
    10:00 +24°C° 0 mm 6 mps 727 mmHg 54%
    11:00 +26°C° 0 mm 6 mps 727 mmHg 50%
    12:00 +28°C° 0 mm 6 mps 727 mmHg 46%
    13:00 +28°C° 0 mm 6 mps 726 mmHg 44%
    14:00 +29°C° 0 mm 5 mps 726 mmHg 42%
    15:00 +30°C° 0 mm 5 mps 726 mmHg 40%
    16:00 +29°C° 0 mm 5 mps 726 mmHg 42%
    17:00 +29°C° 0 mm 4 mps 726 mmHg 43%
    18:00 +28°C° 0 mm 4 mps 726 mmHg 45%
    19:00 +27°C° 0 mm 3 mps 726 mmHg 48%
    20:00 +25°C° 0 mm 3 mps 726 mmHg 52%
    21:00 +22°C° 0 mm 3 mps 726 mmHg 55%
    22:00 +23°C° 0 mm 2 mps 726 mmHg 56%
    23:00 +21°C° 0 mm 2 mps 726 mmHg 58%

    22 August, Wednesday

    Time Temperature Precipitation Wind Pressure Humidity
    00:00 +20°C° 0 mm 2 mps 726 mmHg 59%
    01:00 +20°C° 0 mm 2 mps 726 mmHg 61%
    02:00 +19°C° 0 mm 2 mps 726 mmHg 63%
    03:00 +19°C° 0 mm 2 mps 726 mmHg 64%
    04:00 +19°C° 0 mm 2 mps 726 mmHg 66%
    05:00 +19°C° 0 mm 2 mps 726 mmHg 68%
    06:00 +18°C° 0 mm 2 mps 726 mmHg 70%
    07:00 +21°C° 0 mm 2 mps 727 mmHg 63%
    08:00 +24°C° 0 mm 2 mps 727 mmHg 56%
    09:00 +26°C° 0 mm 2 mps 727 mmHg 48%
    10:00 +28°C° 0 mm 2 mps 727 mmHg 44%
    11:00 +30°C° 0 mm 2 mps 727 mmHg 40%
    12:00 +31°C° 0 mm 1 mps 727 mmHg 35%
    13:00 +32°C° 0 mm 1 mps 727 mmHg 33%
    14:00 +32°C° 0 mm 1 mps 726 mmHg 31%
    15:00 +33°C° 0 mm 1 mps 726 mmHg 29%
    16:00 +32°C° 0 mm 2 mps 726 mmHg 31%
    17:00 +32°C° 0 mm 2 mps 726 mmHg 33%
    18:00 +31°C° 0 mm 2 mps 726 mmHg 35%
    19:00 +29°C° 0 mm 2 mps 726 mmHg 37%
    20:00 +27°C° 0 mm 2 mps 727 mmHg 40%
    21:00 +25°C° 0 mm 2 mps 727 mmHg 43%
    22:00 +25°C° 0 mm 2 mps 727 mmHg 43%
    23:00 +24°C° 0 mm 2 mps 727 mmHg 44%

    23 August, Thursday

    Time Temperature Precipitation Wind Pressure Humidity
    00:00 +23°C° 0 mm 2 mps 727 mmHg 45%
    01:00 +23°C° 0 mm 2 mps 727 mmHg 46%
    02:00 +22°C° 0 mm 1 mps 727 mmHg 48%
    03:00 +22°C° 0 mm 1 mps 727 mmHg 50%
    04:00 +21°C° 0 mm 1 mps 727 mmHg 51%
    05:00 +20°C° 0 mm 2 mps 727 mmHg 53%
    06:00 +19°C° 0 mm 2 mps 727 mmHg 55%
    07:00 +23°C° 0 mm 2 mps 728 mmHg 50%
    08:00 +25°C° 0 mm 2 mps 728 mmHg 45%
    09:00 +27°C° 0 mm 3 mps 728 mmHg 40%
    10:00 +29°C° 0 mm 3 mps 728 mmHg 37%
    11:00 +30°C° 0 mm 4 mps 728 mmHg 34%
    12:00 +33°C° 0 mm 5 mps 727 mmHg 31%
    13:00 +33°C° 0 mm 5 mps 727 mmHg 30%
    14:00 +34°C° 0 mm 5 mps 727 mmHg 30%
    15:00 +34°C° 0 mm 5 mps 727 mmHg 29%
    16:00 +33°C° 0 mm 5 mps 727 mmHg 31%
    17:00 +32°C° 0 mm 5 mps 727 mmHg 32%
    18:00 +32°C° 0 mm 5 mps 727 mmHg 34%
    19:00 +29°C° 0 mm 4 mps 727 mmHg 36%
    20:00 +27°C° 0 mm 4 mps 727 mmHg 37%
    21:00 +25°C° 0 mm 4 mps 727 mmHg 39%
    22:00 +25°C° 0 mm 4 mps 727 mmHg 40%
    23:00 +23°C° 0 mm 5 mps 727 mmHg 41%

    24 August, Friday

    Time Temperature Precipitation Wind Pressure Humidity
    00:00 +23°C° 0 mm 5 mps 727 mmHg 42%
    01:00 +22°C° 0 mm 4 mps 727 mmHg 45%
    02:00 +21°C° 0 mm 4 mps 727 mmHg 47%
    03:00 +21°C° 0 mm 4 mps 727 mmHg 49%
    04:00 +20°C° 0 mm 4 mps 727 mmHg 52%
    05:00 +20°C° 0 mm 4 mps 727 mmHg 55%
    06:00 +20°C° 0 mm 4 mps 727 mmHg 58%
    07:00 +22°C° 0 mm 6 mps 727 mmHg 54%
    08:00 +24°C° 0 mm 7 mps 727 mmHg 50%
    09:00 +27°C° 0 mm 8 mps 727 mmHg 46%
    10:00 +28°C° 0 mm 8 mps 727 mmHg 42%
    11:00 +29°C° 0 mm 8 mps 726 mmHg 39%
    12:00 +32°C° 0 mm 8 mps 726 mmHg 35%
    13:00 +32°C° 0 mm 8 mps 726 mmHg 34%
    14:00 +32°C° 0 mm 8 mps 726 mmHg 33%
    15:00 +33°C° 0 mm 8 mps 725 mmHg 32%
    16:00 +32°C° 0 mm 8 mps 725 mmHg 34%
    17:00 +30°C° 0 mm 7 mps 725 mmHg 36%
    18:00 +30°C° 0 mm 7 mps 725 mmHg 37%
    19:00 +28°C° 0 mm 7 mps 725 mmHg 39%
    20:00 +27°C° 0 mm 7 mps 725 mmHg 41%
    21:00 +26°C° 0 mm 8 mps 725 mmHg 43%
    22:00 +24°C° 0 mm 8 mps 725 mmHg 44%
    23:00 +23°C° 0 mm 8 mps 725 mmHg 46%
    Show more